Location: Newark
(28.4500°N, 16.2500°W)
Time: 08:47:22
(UTC+00:00)

Envisat - Visible Passes

Search period start: 18 July 2019 00:00
Search period end: 28 July 2019 00:00
Orbit: 764 x 766 km, 98.1° (Epoch: 18 July)

Date Brightness Start Highest point End Pass type
(mag) Time Alt. Az. Time Alt. Az. Time Alt. Az.
18 Jul 5.6 20:36:57 10° SW 20:40:29 19° W 20:44:03 10° NW visible
21 Jul 5.3 20:25:05 10° SSW 20:29:12 25° W 20:33:20 10° NW visible
23 Jul 5.9 20:52:40 10° WSW 20:54:52 13° W 20:57:03 10° WNW visible
26 Jul 5.7 20:40:18 10° SW 20:43:32 17° W 20:46:48 10° NW visible
